Location: Lanoux
(43.1180°N, 1.4255°E)
Time: 14:56:03
(UTC+00:00)

Tiangong - Pass Details

Date: 21 February 2026
Orbit: 382 x 391 km, 41.5° (Epoch: 5 March)

Event Time Altitude Azimuth Distance (km) Brightness Sun altitude
Rises 19:06:57 0° 270° (W) 2,256 3.5 -17.8°
Reaches altitude 10° 19:09:49 10° 241° (WSW) 1,397 1.6 -18.3°
Maximum altitude 19:11:25 13° 211° (SSW) 1,216 0.7 -18.6°
Drops below altitude 10° 19:13:01 10° 180° (S) 1,391 0.6 -18.9°
Enters shadow 19:13:01 10° 180° (S) 1,391 0.6 -18.9°
